Time,TemperatureF,DewpointF,PressureIn,WindDirection,WindDirectionDegrees,WindSpeedMPH,WindSpeedGustMPH,Humidity,HourlyPrecipIn,Conditions,Clouds,dailyrainin,SoftwareType,DateUTC
2013-10-28 05:15:00,41.7,23.9,30.03,North,-999,0.0,2.7,49,0.00,,,-99.99,FreeWX 2.04,2013-10-28 09:15:00,
2013-10-28 05:21:00,41.5,23.9,30.03,North,-999,0.0,0.0,49,0.00,,,-99.99,FreeWX 2.04,2013-10-28 09:21:00,
2013-10-28 06:55:00,37.4,20.5,30.09,North,-999,0.0,2.7,50,0.00,,,-99.99,FreeWX 2.04,2013-10-28 10:55:00,
2013-10-28 07:01:00,37.4,19.9,30.09,North,-999,0.0,6.9,49,0.00,,,-99.99,FreeWX 2.04,2013-10-28 11:01:00,
2013-10-28 07:06:00,37.0,19.8,30.09,North,-999,0.0,4.5,49,0.00,,,-99.99,FreeWX 2.04,2013-10-28 11:06:00,
2013-10-28 07:11:00,37.0,20.1,30.12,North,-999,0.0,5.8,50,0.00,,,-99.99,FreeWX 2.04,2013-10-28 11:11:00,
2013-10-28 07:16:00,37.0,20.1,30.12,North,-999,0.0,0.0,50,0.00,,,-99.99,FreeWX 2.04,2013-10-28 11:16:00,
2013-10-28 07:21:00,37.0,20.1,30.12,North,-999,0.0,4.0,50,0.00,,,-99.99,FreeWX 2.04,2013-10-28 11:21:00,
2013-10-28 07:26:00,37.0,20.1,30.12,North,-999,0.0,0.0,50,0.00,,,-99.99,FreeWX 2.04,2013-10-28 11:26:00,
2013-10-28 07:31:00,37.0,20.1,30.12,North,-999,0.0,4.5,50,0.00,,,-99.99,FreeWX 2.04,2013-10-28 11:31:00,
2013-10-28 07:36:00,37.2,20.8,30.12,North,-999,0.0,0.0,51,0.00,,,-99.99,FreeWX 2.04,2013-10-28 11:36:00,
2013-10-28 07:41:00,37.0,20.7,30.12,North,-999,0.0,4.5,51,0.00,,,-99.99,FreeWX 2.04,2013-10-28 11:41:00,
2013-10-28 07:46:00,37.0,20.7,30.12,North,-999,0.0,0.0,51,0.00,,,-99.99,FreeWX 2.04,2013-10-28 11:46:00,
2013-10-28 07:51:00,37.2,21.2,30.12,North,-999,0.0,0.0,52,0.00,,,-99.99,FreeWX 2.04,2013-10-28 11:51:00,
2013-10-28 07:56:00,37.2,21.2,30.15,North,-999,0.0,3.6,52,0.00,,,-99.99,FreeWX 2.04,2013-10-28 11:56:00,
2013-10-28 08:01:00,37.2,21.7,30.15,North,-999,0.0,4.0,53,0.00,,,-99.99,FreeWX 2.04,2013-10-28 12:01:00,
2013-10-28 08:06:00,37.4,21.9,30.15,North,-999,0.0,7.8,53,0.00,,,-99.99,FreeWX 2.04,2013-10-28 12:06:00,
2013-10-28 08:11:00,37.2,21.2,30.15,North,-999,0.0,4.9,52,0.00,,,-99.99,FreeWX 2.04,2013-10-28 12:11:00,
2013-10-28 08:16:00,36.9,20.8,30.15,North,-999,0.0,4.5,52,0.00,,,-99.99,FreeWX 2.04,2013-10-28 12:16:00,
2013-10-28 08:21:00,36.9,20.8,30.15,North,-999,0.0,3.6,52,0.00,,,-99.99,FreeWX 2.04,2013-10-28 12:21:00,
2013-10-28 08:26:00,36.9,20.8,30.15,North,-999,0.0,5.4,52,0.00,,,-99.99,FreeWX 2.04,2013-10-28 12:26:00,
2013-10-28 08:31:00,37.8,22.6,30.15,ENE,68,1.0,4.9,54,0.00,,,-99.99,FreeWX 2.04,2013-10-28 12:31:00,
2013-10-28 08:36:00,37.9,22.3,30.15,NE,38,1.0,7.4,53,0.00,,,-99.99,FreeWX 2.04,2013-10-28 12:36:00,
2013-10-28 08:41:00,37.8,21.7,30.18,North,-999,0.0,4.9,52,0.00,,,-99.99,FreeWX 2.04,2013-10-28 12:41:00,
2013-10-28 08:46:00,37.6,21.6,30.18,North,-999,0.0,5.4,52,0.00,,,-99.99,FreeWX 2.04,2013-10-28 12:46:00,
2013-10-28 08:51:00,37.9,22.3,30.18,NE,44,1.0,8.3,53,0.00,,,-99.99,FreeWX 2.04,2013-10-28 12:51:00,
2013-10-28 08:56:00,38.3,22.6,30.18,ENE,60,1.0,4.0,53,0.00,,,-99.99,FreeWX 2.04,2013-10-28 12:56:00,
2013-10-28 09:01:00,38.3,22.6,30.18,North,-999,0.0,4.0,53,0.00,,,-99.99,FreeWX 2.04,2013-10-28 13:01:00,
2013-10-28 09:06:00,38.7,23.0,30.18,North,-999,0.0,4.0,53,0.00,,,-99.99,FreeWX 2.04,2013-10-28 13:06:00,
2013-10-28 09:11:00,39.0,22.8,30.18,NE,47,1.0,11.6,52,0.00,,,-99.99,FreeWX 2.04,2013-10-28 13:11:00,
2013-10-28 09:16:00,39.7,23.2,30.18,NNE,30,2.0,4.9,51,0.00,,,-99.99,FreeWX 2.04,2013-10-28 13:16:00,
2013-10-28 09:21:00,40.3,23.2,30.18,NE,43,1.0,5.8,50,0.00,,,-99.99,FreeWX 2.04,2013-10-28 13:21:00,
2013-10-28 09:26:00,40.5,22.3,30.21,NE,53,1.0,7.4,48,0.00,,,-99.99,FreeWX 2.04,2013-10-28 13:26:00,
2013-10-28 09:31:00,40.6,21.0,30.21,NE,41,2.0,7.8,45,0.00,,,-99.99,FreeWX 2.04,2013-10-28 13:31:00,
2013-10-28 09:36:00,40.6,19.4,30.21,NE,44,2.0,9.6,42,0.00,,,-99.99,FreeWX 2.04,2013-10-28 13:36:00,
2013-10-28 09:41:00,40.3,18.0,30.21,NE,51,2.0,6.9,40,0.00,,,-99.99,FreeWX 2.04,2013-10-28 13:41:00,
2013-10-28 09:46:00,40.3,17.2,30.21,NE,50,2.0,9.6,39,0.00,,,-99.99,FreeWX 2.04,2013-10-28 13:46:00,
2013-10-28 09:51:00,40.1,17.8,30.21,NNE,23,2.0,5.4,40,0.00,,,-99.99,FreeWX 2.04,2013-10-28 13:51:00,
2013-10-28 09:56:00,39.9,17.1,30.21,NNE,27,2.0,8.7,39,0.00,,,-99.99,FreeWX 2.04,2013-10-28 13:56:00,
2013-10-28 10:01:00,39.9,17.1,30.21,NE,40,2.0,5.4,39,0.00,,,-99.99,FreeWX 2.04,2013-10-28 14:01:00,
2013-10-28 10:06:00,40.1,16.5,30.21,NE,34,1.0,6.7,38,0.00,,,-99.99,FreeWX 2.04,2013-10-28 14:06:00,
2013-10-28 10:11:00,40.3,16.7,30.24,NNE,15,1.0,5.8,38,0.00,,,-99.99,FreeWX 2.04,2013-10-28 14:11:00,
2013-10-28 10:16:00,40.3,16.7,30.24,ENE,63,1.0,8.7,38,0.00,,,-99.99,FreeWX 2.04,2013-10-28 14:16:00,
2013-10-28 10:21:00,40.5,16.9,30.24,NE,44,1.0,7.4,38,0.00,,,-99.99,FreeWX 2.04,2013-10-28 14:21:00,
2013-10-28 10:26:00,40.5,16.3,30.24,NE,34,1.0,6.9,37,0.00,,,-99.99,FreeWX 2.04,2013-10-28 14:26:00,
2013-10-28 10:31:00,40.3,15.4,30.24,NE,52,1.0,7.4,36,0.00,,,-99.99,FreeWX 2.04,2013-10-28 14:31:00,
2013-10-28 10:36:00,40.3,14.9,30.24,NE,45,1.0,6.9,35,0.00,,,-99.99,FreeWX 2.04,2013-10-28 14:36:00,
2013-10-28 10:41:00,40.3,14.2,30.24,NE,56,1.0,6.3,34,0.00,,,-99.99,FreeWX 2.04,2013-10-28 14:41:00,
2013-10-28 10:46:00,40.5,15.1,30.24,ENE,72,1.0,7.8,35,0.00,,,-99.99,FreeWX 2.04,2013-10-28 14:46:00,
2013-10-28 10:51:00,40.6,14.5,30.24,ENE,75,2.0,8.7,34,0.00,,,-99.99,FreeWX 2.04,2013-10-28 14:51:00,
2013-10-28 10:56:00,41.0,14.7,30.24,ENE,75,2.0,6.7,34,0.00,,,-99.99,FreeWX 2.04,2013-10-28 14:56:00,
2013-10-28 11:01:00,41.2,14.9,30.24,East,81,1.0,5.4,34,0.00,,,-99.99,FreeWX 2.04,2013-10-28 15:01:00,
2013-10-28 11:06:00,41.4,15.1,30.24,East,84,1.0,6.3,34,0.00,,,-99.99,FreeWX 2.04,2013-10-28 15:06:00,
2013-10-28 11:11:00,41.2,14.9,30.27,East,96,1.0,5.4,34,0.00,,,-99.99,FreeWX 2.04,2013-10-28 15:11:00,
2013-10-28 11:16:00,41.4,15.1,30.27,North,-999,0.0,4.5,34,0.00,,,-99.99,FreeWX 2.04,2013-10-28 15:16:00,
2013-10-28 11:21:00,41.7,13.3,30.27,NE,46,1.0,5.8,31,0.00,,,-99.99,FreeWX 2.04,2013-10-28 15:21:00,
2013-10-28 11:26:00,42.6,14.2,30.27,NNE,13,1.0,5.4,31,0.00,,,-99.99,FreeWX 2.04,2013-10-28 15:26:00,
2013-10-28 11:31:00,44.1,14.7,30.27,NE,43,1.0,4.5,30,0.00,,,-99.99,FreeWX 2.04,2013-10-28 15:31:00,
2013-10-28 11:36:00,45.0,14.7,30.27,NE,35,1.0,6.3,29,0.00,,,-99.99,FreeWX 2.04,2013-10-28 15:36:00,
2013-10-28 11:41:00,46.0,14.7,30.27,North,-999,0.0,2.7,28,0.00,,,-99.99,FreeWX 2.04,2013-10-28 15:41:00,
2013-10-28 11:46:00,46.4,15.1,30.27,North,-999,0.0,4.9,28,0.00,,,-99.99,FreeWX 2.04,2013-10-28 15:46:00,
2013-10-28 11:51:00,45.1,14.0,30.27,East,89,2.0,9.6,28,0.00,,,-99.99,FreeWX 2.04,2013-10-28 15:51:00,
2013-10-28 11:56:00,43.7,13.6,30.27,East,99,2.0,6.7,29,0.00,,,-99.99,FreeWX 2.04,2013-10-28 15:56:00,
2013-10-28 12:01:00,42.6,12.6,30.27,ENE,66,1.0,6.7,29,0.00,,,-99.99,FreeWX 2.04,2013-10-28 16:01:00,
2013-10-28 12:06:00,41.9,12.7,30.27,ENE,75,1.0,6.7,30,0.00,,,-99.99,FreeWX 2.04,2013-10-28 16:06:00,
2013-10-28 12:11:00,41.4,13.1,30.30,ENE,70,1.0,9.2,31,0.00,,,-99.99,FreeWX 2.04,2013-10-28 16:11:00,
2013-10-28 12:16:00,41.0,13.5,30.30,ENE,57,1.0,4.9,32,0.00,,,-99.99,FreeWX 2.04,2013-10-28 16:16:00,
2013-10-28 12:21:00,41.0,13.5,30.30,North,-999,0.0,4.9,32,0.00,,,-99.99,FreeWX 2.04,2013-10-28 16:21:00,
2013-10-28 12:26:00,40.6,13.1,30.30,NE,51,1.0,7.8,32,0.00,,,-99.99,FreeWX 2.04,2013-10-28 16:26:00,
2013-10-28 12:31:00,40.3,13.5,30.30,NE,50,1.0,6.3,33,0.00,,,-99.99,FreeWX 2.04,2013-10-28 16:31:00,
2013-10-28 12:36:00,40.3,14.2,30.30,ENE,58,1.0,6.3,34,0.00,,,-99.99,FreeWX 2.04,2013-10-28 16:36:00,
2013-10-28 12:41:00,39.9,13.8,30.30,NE,39,1.0,6.7,34,0.00,,,-99.99,FreeWX 2.04,2013-10-28 16:41:00,
2013-10-28 12:46:00,40.1,14.7,30.30,NNE,25,1.0,6.7,35,0.00,,,-99.99,FreeWX 2.04,2013-10-28 16:46:00,
2013-10-28 12:51:00,40.5,15.1,30.30,North,-999,0.0,4.9,35,0.00,,,-99.99,FreeWX 2.04,2013-10-28 16:51:00,
2013-10-28 12:56:00,41.0,15.4,30.30,East,92,1.0,9.2,35,0.00,,,-99.99,FreeWX 2.04,2013-10-28 16:56:00,
2013-10-28 13:01:00,41.2,14.9,30.30,East,99,1.0,6.9,34,0.00,,,-99.99,FreeWX 2.04,2013-10-28 17:01:00,
2013-10-28 13:06:00,41.5,16.0,30.30,ENE,72,1.0,4.9,35,0.00,,,-99.99,FreeWX 2.04,2013-10-28 17:06:00,
2013-10-28 13:11:00,41.7,15.4,30.30,North,-999,0.0,5.4,34,0.00,,,-99.99,FreeWX 2.04,2013-10-28 17:11:00,
2013-10-28 13:16:00,41.9,14.9,30.30,ESE,108,1.0,6.7,33,0.00,,,-99.99,FreeWX 2.04,2013-10-28 17:16:00,
2013-10-28 13:21:00,41.9,14.2,30.30,East,92,1.0,4.9,32,0.00,,,-99.99,FreeWX 2.04,2013-10-28 17:21:00,
2013-10-28 13:26:00,42.3,14.5,30.30,ENE,72,1.0,5.4,32,0.00,,,-99.99,FreeWX 2.04,2013-10-28 17:26:00,
2013-10-28 13:31:00,42.3,13.8,30.30,East,82,1.0,8.7,31,0.00,,,-99.99,FreeWX 2.04,2013-10-28 17:31:00,
2013-10-28 13:36:00,42.3,13.8,30.30,ESE,102,1.0,6.7,31,0.00,,,-99.99,FreeWX 2.04,2013-10-28 17:36:00,
2013-10-28 13:41:00,42.3,13.1,30.30,East,84,1.0,6.3,30,0.00,,,-99.99,FreeWX 2.04,2013-10-28 17:41:00,
2013-10-28 13:46:00,42.6,13.5,30.30,ENE,77,1.0,8.3,30,0.00,,,-99.99,FreeWX 2.04,2013-10-28 17:46:00,
2013-10-28 13:51:00,43.3,14.0,30.30,North,-999,0.0,3.6,30,0.00,,,-99.99,FreeWX 2.04,2013-10-28 17:51:00,
2013-10-28 13:56:00,44.2,14.7,30.33,North,-999,0.0,4.5,30,0.00,,,-99.99,FreeWX 2.04,2013-10-28 17:56:00,
2013-10-28 14:01:00,43.9,12.9,30.33,ESE,103,1.0,9.2,28,0.00,,,-99.99,FreeWX 2.04,2013-10-28 18:01:00,
2013-10-28 14:06:00,42.8,12.7,30.33,East,98,2.0,6.7,29,0.00,,,-99.99,FreeWX 2.04,2013-10-28 18:06:00,
2013-10-28 14:11:00,42.4,13.3,30.33,East,100,1.0,5.8,30,0.00,,,-99.99,FreeWX 2.04,2013-10-28 18:11:00,
2013-10-28 14:16:00,42.4,13.3,30.33,North,-999,0.0,6.9,30,0.00,,,-99.99,FreeWX 2.04,2013-10-28 18:16:00,
2013-10-28 14:21:00,43.7,15.1,30.33,North,-999,0.0,5.8,31,0.00,,,-99.99,FreeWX 2.04,2013-10-28 18:21:00,
2013-10-28 14:26:00,43.9,13.6,30.30,ENE,70,1.0,9.2,29,0.00,,,-99.99,FreeWX 2.04,2013-10-28 18:26:00,
2013-10-28 14:31:00,43.5,13.5,30.30,ENE,57,1.0,4.0,29,0.00,,,-99.99,FreeWX 2.04,2013-10-28 18:31:00,
2013-10-28 14:36:00,43.3,13.3,30.30,North,-999,0.0,4.9,29,0.00,,,-99.99,FreeWX 2.04,2013-10-28 18:36:00,
2013-10-28 14:41:00,43.5,13.5,30.30,North,-999,0.0,4.5,29,0.00,,,-99.99,FreeWX 2.04,2013-10-28 18:41:00,
2013-10-28 14:46:00,44.2,13.3,30.30,East,99,1.0,6.7,28,0.00,,,-99.99,FreeWX 2.04,2013-10-28 18:46:00,
2013-10-28 14:51:00,44.6,13.5,30.30,East,91,1.0,4.9,28,0.00,,,-99.99,FreeWX 2.04,2013-10-28 18:51:00,
2013-10-28 14:56:00,44.1,12.2,30.30,North,-999,0.0,3.1,27,0.00,,,-99.99,FreeWX 2.04,2013-10-28 18:56:00,
2013-10-28 15:01:00,43.2,12.4,30.30,North,-999,0.0,3.1,28,0.00,,,-99.99,FreeWX 2.04,2013-10-28 19:01:00,
2013-10-28 15:06:00,42.4,11.7,30.30,North,-999,0.0,5.4,28,0.00,,,-99.99,FreeWX 2.04,2013-10-28 19:06:00,
2013-10-28 15:11:00,42.4,11.7,30.30,North,-999,0.0,5.4,28,0.00,,,-99.99,FreeWX 2.04,2013-10-28 19:11:00,
2013-10-28 15:16:00,43.0,12.2,30.30,East,94,1.0,6.7,28,0.00,,,-99.99,FreeWX 2.04,2013-10-28 19:16:00,
2013-10-28 15:21:00,42.4,11.7,30.30,East,101,1.0,5.4,28,0.00,,,-99.99,FreeWX 2.04,2013-10-28 19:21:00,
2013-10-28 15:26:00,41.9,11.1,30.33,ESE,106,1.0,5.8,28,0.00,,,-99.99,FreeWX 2.04,2013-10-28 19:26:00,
2013-10-28 15:31:00,42.3,11.5,30.33,East,101,1.0,5.8,28,0.00,,,-99.99,FreeWX 2.04,2013-10-28 19:31:00,
2013-10-28 15:36:00,42.1,11.3,30.33,ESE,106,1.0,5.4,28,0.00,,,-99.99,FreeWX 2.04,2013-10-28 19:36:00,
2013-10-28 15:41:00,41.2,10.6,30.30,North,-999,0.0,4.5,28,0.00,,,-99.99,FreeWX 2.04,2013-10-28 19:41:00,
2013-10-28 15:46:00,41.0,10.4,30.30,North,-999,0.0,5.8,28,0.00,,,-99.99,FreeWX 2.04,2013-10-28 19:46:00,
2013-10-28 15:51:00,41.4,10.8,30.30,North,-999,0.0,4.9,28,0.00,,,-99.99,FreeWX 2.04,2013-10-28 19:51:00,
2013-10-28 15:56:00,41.7,11.8,30.30,East,96,1.0,5.4,29,0.00,,,-99.99,FreeWX 2.04,2013-10-28 19:56:00,
2013-10-28 16:01:00,42.4,12.4,30.30,East,101,1.0,5.8,29,0.00,,,-99.99,FreeWX 2.04,2013-10-28 20:01:00,
2013-10-28 16:06:00,42.8,12.7,30.30,ESE,104,1.0,8.3,29,0.00,,,-99.99,FreeWX 2.04,2013-10-28 20:06:00,
2013-10-28 16:11:00,42.3,11.5,30.33,ESE,111,2.0,6.9,28,0.00,,,-99.99,FreeWX 2.04,2013-10-28 20:11:00,
2013-10-28 16:16:00,41.7,11.8,30.33,ESE,116,1.0,4.9,29,0.00,,,-99.99,FreeWX 2.04,2013-10-28 20:16:00,
2013-10-28 16:21:00,41.0,11.1,30.33,North,-999,0.0,4.5,29,0.00,,,-99.99,FreeWX 2.04,2013-10-28 20:21:00,
2013-10-28 16:26:00,40.5,10.8,30.33,North,-999,0.0,4.5,29,0.00,,,-99.99,FreeWX 2.04,2013-10-28 20:26:00,
2013-10-28 16:31:00,40.5,10.8,30.33,North,-999,0.0,4.0,29,0.00,,,-99.99,FreeWX 2.04,2013-10-28 20:31:00,
2013-10-28 16:36:00,41.0,11.1,30.33,North,-999,0.0,4.0,29,0.00,,,-99.99,FreeWX 2.04,2013-10-28 20:36:00,
2013-10-28 16:41:00,41.7,12.6,30.33,North,-999,0.0,4.5,30,0.00,,,-99.99,FreeWX 2.04,2013-10-28 20:41:00,
2013-10-28 16:46:00,41.5,11.7,30.33,North,-999,0.0,6.3,29,0.00,,,-99.99,FreeWX 2.04,2013-10-28 20:46:00,
2013-10-28 16:51:00,41.0,11.1,30.33,North,-999,0.0,4.5,29,0.00,,,-99.99,FreeWX 2.04,2013-10-28 20:51:00,
2013-10-28 16:56:00,40.5,10.8,30.33,North,-999,0.0,2.7,29,0.00,,,-99.99,FreeWX 2.04,2013-10-28 20:56:00,
2013-10-28 17:01:00,39.7,10.9,30.33,North,-999,0.0,4.0,30,0.00,,,-99.99,FreeWX 2.04,2013-10-28 21:01:00,
2013-10-28 17:06:00,39.0,9.5,30.33,North,-999,0.0,4.9,29,0.00,,,-99.99,FreeWX 2.04,2013-10-28 21:06:00,
2013-10-28 17:11:00,38.5,9.9,30.33,North,-999,0.0,0.0,30,0.00,,,-99.99,FreeWX 2.04,2013-10-28 21:11:00,
2013-10-28 17:16:00,38.1,9.5,30.33,North,-999,0.0,0.0,30,0.00,,,-99.99,FreeWX 2.04,2013-10-28 21:16:00,
2013-10-28 17:21:00,37.9,9.3,30.33,North,-999,0.0,4.9,30,0.00,,,-99.99,FreeWX 2.04,2013-10-28 21:21:00,
2013-10-28 17:26:00,37.6,9.0,30.33,North,-999,0.0,3.6,30,0.00,,,-99.99,FreeWX 2.04,2013-10-28 21:26:00,
2013-10-28 17:31:00,37.4,8.8,30.33,North,-999,0.0,2.7,30,0.00,,,-99.99,FreeWX 2.04,2013-10-28 21:31:00,
2013-10-28 17:36:00,36.9,8.4,30.33,North,-999,0.0,0.0,30,0.00,,,-99.99,FreeWX 2.04,2013-10-28 21:36:00,
2013-10-28 17:41:00,36.5,8.1,30.33,North,-999,0.0,3.6,30,0.00,,,-99.99,FreeWX 2.04,2013-10-28 21:41:00,
2013-10-28 17:46:00,36.3,8.6,30.33,North,-999,0.0,4.0,31,0.00,,,-99.99,FreeWX 2.04,2013-10-28 21:46:00,
2013-10-28 17:51:00,36.1,8.4,30.33,North,-999,0.0,3.1,31,0.00,,,-99.99,FreeWX 2.04,2013-10-28 21:51:00,
2013-10-28 17:56:00,36.1,8.4,30.30,North,-999,0.0,3.6,31,0.00,,,-99.99,FreeWX 2.04,2013-10-28 21:56:00,
2013-10-28 18:01:00,36.1,9.1,30.30,North,-999,0.0,0.0,32,0.00,,,-99.99,FreeWX 2.04,2013-10-28 22:01:00,
2013-10-28 18:06:00,36.0,9.0,30.30,North,-999,0.0,4.0,32,0.00,,,-99.99,FreeWX 2.04,2013-10-28 22:06:00,
2013-10-28 18:11:00,35.8,8.8,30.30,North,-999,0.0,0.0,32,0.00,,,-99.99,FreeWX 2.04,2013-10-28 22:11:00,
2013-10-28 18:16:00,35.4,8.6,30.30,North,-999,0.0,0.0,32,0.00,,,-99.99,FreeWX 2.04,2013-10-28 22:16:00,
2013-10-28 18:21:00,35.1,8.2,30.30,North,-999,0.0,0.0,32,0.00,,,-99.99,FreeWX 2.04,2013-10-28 22:21:00,
2013-10-28 18:26:00,34.7,7.9,30.33,North,-999,0.0,0.0,32,0.00,,,-99.99,FreeWX 2.04,2013-10-28 22:26:00,
2013-10-28 18:31:00,34.5,9.1,30.33,North,-999,0.0,4.5,34,0.00,,,-99.99,FreeWX 2.04,2013-10-28 22:31:00,
2013-10-28 18:36:00,34.0,8.6,30.33,North,-999,0.0,0.0,34,0.00,,,-99.99,FreeWX 2.04,2013-10-28 22:36:00,
2013-10-28 18:41:00,33.6,9.0,30.33,North,-999,0.0,0.0,35,0.00,,,-99.99,FreeWX 2.04,2013-10-28 22:41:00,
2013-10-28 18:46:00,33.3,8.6,30.33,North,-999,0.0,0.0,35,0.00,,,-99.99,FreeWX 2.04,2013-10-28 22:46:00,
2013-10-28 18:51:00,33.1,9.1,30.33,North,-999,0.0,0.0,36,0.00,,,-99.99,FreeWX 2.04,2013-10-28 22:51:00,
2013-10-28 18:56:00,32.9,10.0,30.33,North,-999,0.0,0.0,38,0.00,,,-99.99,FreeWX 2.04,2013-10-28 22:56:00,
2013-10-28 19:01:00,32.7,11.1,30.33,North,-999,0.0,0.0,40,0.00,,,-99.99,FreeWX 2.04,2013-10-28 23:01:00,
2013-10-28 19:06:00,32.7,11.1,30.33,North,-999,0.0,2.7,40,0.00,,,-99.99,FreeWX 2.04,2013-10-28 23:06:00,
2013-10-28 19:11:00,32.7,11.1,30.33,North,-999,0.0,0.0,40,0.00,,,-99.99,FreeWX 2.04,2013-10-28 23:11:00,
2013-10-28 19:16:00,32.5,11.5,30.33,North,-999,0.0,0.0,41,0.00,,,-99.99,FreeWX 2.04,2013-10-28 23:16:00,
2013-10-28 19:21:00,32.5,11.5,30.33,North,-999,0.0,0.0,41,0.00,,,-99.99,FreeWX 2.04,2013-10-28 23:21:00,
2013-10-28 19:26:00,32.4,11.3,30.33,North,-999,0.0,0.0,41,0.00,,,-99.99,FreeWX 2.04,2013-10-28 23:26:00,
2013-10-28 19:31:00,32.2,11.1,30.33,North,-999,0.0,0.0,41,0.00,,,-99.99,FreeWX 2.04,2013-10-28 23:31:00,
2013-10-28 19:36:00,32.0,10.9,30.33,North,-999,0.0,0.0,41,0.00,,,-99.99,FreeWX 2.04,2013-10-28 23:36:00,
2013-10-28 19:41:00,31.8,10.8,30.33,North,-999,0.0,0.0,41,0.00,,,-99.99,FreeWX 2.04,2013-10-28 23:41:00,
2013-10-28 19:46:00,31.6,10.6,30.33,North,-999,0.0,0.0,41,0.00,,,-99.99,FreeWX 2.04,2013-10-28 23:46:00,
2013-10-28 19:51:00,31.5,10.6,30.33,North,-999,0.0,0.0,41,0.00,,,-99.99,FreeWX 2.04,2013-10-28 23:51:00,
2013-10-28 19:56:00,31.1,10.2,30.33,North,-999,0.0,0.0,41,0.00,,,-99.99,FreeWX 2.04,2013-10-28 23:56:00,
2013-10-28 20:01:00,30.9,10.6,30.33,North,-999,0.0,0.0,42,0.00,,,-99.99,FreeWX 2.04,2013-10-29 00:01:00,
2013-10-28 20:06:00,30.6,10.2,30.33,North,-999,0.0,0.0,42,0.00,,,-99.99,FreeWX 2.04,2013-10-29 00:06:00,
2013-10-28 20:11:00,30.4,10.0,30.33,North,-999,0.0,0.0,42,0.00,,,-99.99,FreeWX 2.04,2013-10-29 00:11:00,
2013-10-28 20:16:00,30.2,9.9,30.33,North,-999,0.0,0.0,42,0.00,,,-99.99,FreeWX 2.04,2013-10-29 00:16:00,
2013-10-28 20:21:00,30.0,10.2,30.33,North,-999,0.0,0.0,43,0.00,,,-99.99,FreeWX 2.04,2013-10-29 00:21:00,
2013-10-28 20:26:00,29.8,10.0,30.33,North,-999,0.0,0.0,43,0.00,,,-99.99,FreeWX 2.04,2013-10-29 00:26:00,
2013-10-28 20:31:00,29.7,9.9,30.33,North,-999,0.0,0.0,43,0.00,,,-99.99,FreeWX 2.04,2013-10-29 00:31:00,
2013-10-28 20:36:00,29.7,9.9,30.33,North,-999,0.0,0.0,43,0.00,,,-99.99,FreeWX 2.04,2013-10-29 00:36:00,
2013-10-28 20:41:00,29.5,10.2,30.33,North,-999,0.0,0.0,44,0.00,,,-99.99,FreeWX 2.04,2013-10-29 00:41:00,
2013-10-28 20:46:00,29.3,10.0,30.33,North,-999,0.0,0.0,44,0.00,,,-99.99,FreeWX 2.04,2013-10-29 00:46:00,
2013-10-28 20:51:00,29.3,10.0,30.33,North,-999,0.0,0.0,44,0.00,,,-99.99,FreeWX 2.04,2013-10-29 00:51:00,
2013-10-28 20:56:00,29.3,10.6,30.36,North,-999,0.0,0.0,45,0.00,,,-99.99,FreeWX 2.04,2013-10-29 00:56:00,
2013-10-28 21:01:00,29.1,10.4,30.36,North,-999,0.0,0.0,45,0.00,,,-99.99,FreeWX 2.04,2013-10-29 01:01:00,
2013-10-28 21:06:00,28.9,10.8,30.36,North,-999,0.0,0.0,46,0.00,,,-99.99,FreeWX 2.04,2013-10-29 01:06:00,
2013-10-28 21:11:00,28.8,10.6,30.36,North,-999,0.0,0.0,46,0.00,,,-99.99,FreeWX 2.04,2013-10-29 01:11:00,
2013-10-28 21:16:00,28.8,11.1,30.36,North,-999,0.0,0.0,47,0.00,,,-99.99,FreeWX 2.04,2013-10-29 01:16:00,